TimeCDT,TemperatureF,Dew PointF,Humidity,Sea Level PressureIn,VisibilityMPH,Wind Direction,Wind SpeedMPH,Gust SpeedMPH,PrecipitationIn,Events,Conditions,WindDirDegrees,DateUTC
12:52 AM,66.0,59.0,78,30.09,10.0,Calm,Calm,-,N/A,,Clear,0,2013-07-13 05:52:00
1:52 AM,64.0,59.0,84,30.09,10.0,Calm,Calm,-,N/A,,Clear,0,2013-07-13 06:52:00
2:52 AM,62.1,57.9,86,30.08,10.0,SSE,4.6,-,N/A,,Clear,150,2013-07-13 07:52:00
3:52 AM,63.0,57.9,84,30.08,10.0,Calm,Calm,-,N/A,,Clear,0,2013-07-13 08:52:00
4:52 AM,60.1,57.0,90,30.08,10.0,SE,4.6,-,N/A,,Clear,140,2013-07-13 09:52:00
5:52 AM,61.0,57.9,90,30.08,10.0,SE,4.6,-,N/A,,Clear,130,2013-07-13 10:52:00
6:52 AM,62.1,57.9,86,30.10,10.0,SE,4.6,-,N/A,,Clear,140,2013-07-13 11:52:00
7:52 AM,64.9,60.1,84,30.12,10.0,SSE,4.6,-,N/A,,Clear,150,2013-07-13 12:52:00
8:52 AM,66.9,61.0,81,30.13,10.0,SSE,6.9,-,N/A,,Clear,150,2013-07-13 13:52:00
9:52 AM,68.0,61.0,78,30.13,10.0,SSE,5.8,-,N/A,,Clear,150,2013-07-13 14:52:00
10:52 AM,70.0,62.1,76,30.12,10.0,SE,8.1,-,N/A,,Clear,140,2013-07-13 15:52:00
11:52 AM,72.0,63.0,73,30.13,10.0,SSE,5.8,-,N/A,,Clear,150,2013-07-13 16:52:00
12:52 PM,73.9,63.0,68,30.13,10.0,Calm,Calm,-,N/A,,Clear,0,2013-07-13 17:52:00
1:52 PM,75.0,64.0,69,30.14,10.0,SE,3.5,-,N/A,,Clear,140,2013-07-13 18:52:00
2:52 PM,77.0,64.0,64,30.11,10.0,SSE,8.1,-,N/A,,Clear,150,2013-07-13 19:52:00
3:52 PM,78.1,63.0,60,30.09,10.0,SE,8.1,-,N/A,,Clear,130,2013-07-13 20:52:00
4:52 PM,78.1,63.0,60,30.08,10.0,ESE,9.2,-,N/A,,Clear,120,2013-07-13 21:52:00
5:52 PM,79.0,64.0,60,30.08,10.0,ESE,8.1,-,N/A,,Clear,120,2013-07-13 22:52:00
6:52 PM,78.1,64.0,62,30.07,10.0,ESE,5.8,-,N/A,,Clear,110,2013-07-13 23:52:00
7:52 PM,77.0,64.0,64,30.07,10.0,ESE,5.8,-,N/A,,Clear,110,2013-07-14 00:52:00
8:52 PM,73.0,63.0,71,30.08,10.0,ESE,3.5,-,N/A,,Clear,120,2013-07-14 01:52:00
9:52 PM,73.0,63.0,71,30.09,10.0,ESE,5.8,-,N/A,,Clear,110,2013-07-14 02:52:00
10:52 PM,70.0,62.1,76,30.11,10.0,ESE,3.5,-,N/A,,Clear,120,2013-07-14 03:52:00
11:52 PM,66.9,61.0,81,30.11,10.0,Calm,Calm,-,N/A,,Clear,0,2013-07-14 04:52:00